Location: Bijele Vode
(45.2833°N, 16.2000°E)
Time: 20:45:24
(UTC+00:00)

Cosmos 2082 Rocket - Pass Details

Date: 18 September 2020
Orbit: 834 x 853 km, 71.0° (Epoch: 27 October)

Event Time Altitude Azimuth Distance (km) Brightness Sun altitude
Rises 20:40:54 0° 336° (NNW) 3,392 6.3 -35.3°
Reaches altitude 10° 20:43:23 10° 339° (NNW) 2,454 5.3 -35.6°
Enters shadow 20:46:24 32° 350° (N) 1,399 3.6 -36.0°
